CW0570 Weather Reports


Display with metric or nautical units.
time (UTC)temp
F
wind
direction
speed
MPH
gust
MPH
rain 1hr
in
rain 24hr
in
rain mn
in
humidity
%
barometer
mb
20260510201508 70 238 3.0 7.0 0.00 0.00 0.00 70 1018.6
20260510200008 70 231 3.0 5.0 0.00 0.00 0.00 65 1018.4
20260510194510 70 230 1.0 3.0 0.00 0.00 0.00 63 1018.4
20260510193003 69 307 3.0 6.0 0.00 0.00 0.00 63 1018.6
20260510191601 68 5 2.0 9.0 0.00 0.00 0.00 65 1018.7
20260510190106 66 360 2.0 5.0 0.00 0.00 0.00 72 1018.9
20260510184606 66 305 1.0 3.0 0.00 0.00 0.00 72 1019.0
20260510183049 64 234 0.0 4.0 0.00 0.00 0.00 72 1019.2
20260510181602 63 297 1.0 3.0 0.00 0.00 0.00 73 1019.4
20260510180049 62 350 1.0 5.0 0.00 0.00 0.00 75 1019.5
20260510174547 60 122 1.0 4.0 0.00 0.00 0.00 78 1019.5
20260510173040 60 5 0.0 6.0 0.00 0.00 0.00 79 1019.7
20260510171553 59 242 2.0 4.0 0.00 0.00 0.00 81 1019.8
20260510170044 59 275 3.0 7.0 0.00 0.00 0.00 80 1019.9
20260510164532 58 94 0.0 2.0 0.00 0.00 0.00 81 1019.7
20260510163036 57 9 2.0 4.0 0.00 0.00 0.00 81 1019.8
20260510161528 57 318 2.0 5.0 0.00 0.00 0.00 84 1019.9
20260510160031 56 360 0.0 2.0 0.00 0.00 0.00 85 1020.0
20260510154523 55 304 1.0 2.0 0.00 0.00 0.00 86 1019.9
20260510153031 55 296 0.0 2.0 0.00 0.00 0.00 88 1020.0
20260510151522 55 296 0.0 2.0 0.00 0.00 0.00 91 1020.0
20260510150017 54 296 0.0 2.0 0.00 0.00 0.00 92 1019.9
20260510144514 53 14 0.0 1.0 0.00 0.00 0.00 94 1019.9
20260510143013 53 14 0.0 2.0 0.00 0.00 0.00 95 1019.8
20260510141510 52 14 0.0 0.0 0.00 0.00 0.00 95 1019.8
20260510140008 52 14 0.0 0.0 0.00 0.00 0.00 95 1019.5
20260510134507 52 14 0.0 0.0 0.00 0.00 0.00 96 1019.4
20260510133006 52 14 0.0 2.0 0.00 0.00 0.00 95 1019.2
20260510131504 52 14 0.0 0.0 0.00 0.00 0.00 95 1019.2
20260510130005 52 14 0.0 0.0 0.00 0.00 0.00 95 1019.0
20260510124505 52 14 0.0 0.0 0.00 0.00 0.00 95 1019.1
20260510123004 52 14 0.0 0.0 0.00 0.00 0.00 95 1019.0
20260510121503 52 14 0.0 0.0 0.00 0.00 0.00 95 1019.0
20260510120003 52 14 0.0 0.0 0.00 0.00 0.00 95 1019.1
20260510114505 52 14 0.0 0.0 0.00 0.00 0.00 95 1019.2
20260510113003 52 14 0.0 0.0 0.00 0.00 0.00 95 1019.1
20260510111602 52 14 0.0 0.0 0.00 0.00 0.00 94 1019.2
20260510110103 52 14 0.0 0.0 0.00 0.00 0.00 94 1019.1
20260510104559 53 14 0.0 0.0 0.00 0.00 0.00 95 1019.2
20260510103057 53 14 0.0 0.0 0.00 0.00 0.00 94 1019.1
20260510101604 53 14 0.0 0.0 0.00 0.00 0.00 94 1019.3
20260510094555 53 14 0.0 0.0 0.00 0.00 0.00 94 1018.9
20260510093051 53 14 0.0 0.0 0.00 0.00 0.00 93 1018.8
20260510091550 53 14 0.0 2.0 0.00 0.00 0.00 92 1018.6
20260510090050 53 14 0.0 2.0 0.00 0.00 0.00 92 1018.7
20260510084606 53 14 0.0 2.0 0.00 0.00 0.00 91 1018.8
20260510083050 53 14 1.0 2.0 0.00 0.00 0.00 91 1018.8
20260510081546 53 14 0.0 2.0 0.00 0.00 0.00 91 1018.7
20260510080058 53 14 0.0 3.0 0.00 0.00 0.00 91 1018.8
20260510074547 53 17 0.0 3.0 0.00 0.00 0.00 92 1018.9
20260510073049 53 18 1.0 6.0 0.00 0.00 0.00 92 1019.0
20260510071545 53 16 0.0 4.0 0.00 0.00 0.00 92 1019.0
20260510070047 53 355 1.0 4.0 0.00 0.00 0.00 93 1018.9
20260510064544 53 5 1.0 5.0 0.00 0.00 0.00 93 1018.9
20260510063039 53 28 0.0 5.0 0.00 0.00 0.00 93 1018.6
20260510061538 53 316 1.0 5.0 0.00 0.00 0.00 93 1018.6
20260510060044 53 313 0.0 2.0 0.00 0.00 0.00 93 1018.6
20260510054537 52 38 1.0 3.0 0.00 0.00 0.00 93 1018.6
20260510053037 53 346 0.0 1.0 0.00 0.00 0.00 92 1018.8
20260510051536 53 346 0.0 3.0 0.00 0.00 0.00 92 1018.7
20260510050037 54 327 0.0 2.0 0.00 0.00 0.00 91 1018.5
20260510044535 54 331 0.0 2.0 0.00 0.00 0.00 90 1018.4
20260510043035 55 330 1.0 4.0 0.00 0.00 0.00 90 1018.2
20260510041533 55 360 1.0 3.0 0.00 0.00 0.00 88 1018.1
20260510040034 56 5 2.0 5.0 0.00 0.00 0.00 87 1017.8
20260510034533 57 340 0.0 2.0 0.00 0.00 0.00 86 1017.7
20260510033043 58 315 1.0 3.0 0.00 0.00 0.00 85 1017.6
20260510031532 59 345 0.0 3.0 0.00 0.00 0.00 85 1017.4
20260510030032 60 344 0.0 2.0 0.00 0.00 0.00 84 1017.3
20260510024531 61 342 0.0 2.0 0.00 0.00 0.00 83 1017.1
20260510023031 62 321 0.0 3.0 0.00 0.00 0.00 80 1017.1
20260510021611 63 309 2.0 4.0 0.00 0.00 0.00 78 1017.2
20260510020031 65 302 1.0 3.0 0.00 0.00 0.00 75 1017.2
20260510014545 66 260 1.0 5.0 0.00 0.00 0.00 73 1017.3
20260510013032 66 293 0.0 2.0 0.00 0.00 0.00 73 1017.3
20260510011529 66 288 0.0 3.0 0.00 0.00 0.00 74 1017.2
20260510010037 65 138 0.0 4.0 0.00 0.00 0.00 75 1017.2
20260510004527 66 126 1.0 11.0 0.00 0.00 0.00 71 1017.0
20260510003028 68 234 2.0 8.0 0.00 0.00 0.00 68 1016.8
20260510001526 71 94 2.0 6.0 0.00 0.00 0.00 67 1016.6
20260510000025 71 254 1.0 7.0 0.00 0.00 0.00 67 1016.5
20260509234524 72 253 1.0 10.0 0.00 0.00 0.00 67 1016.6
20260509233026 72 153 2.0 5.0 0.00 0.00 0.00 66 1016.6
20260509231520 71 233 0.0 7.0 0.00 0.00 0.00 66 1016.7
20260509230026 71 19 2.0 6.0 0.00 0.00 0.00 68 1016.8
20260509224521 70 252 2.0 11.0 0.00 0.00 0.00 68 1017.0
20260509223018 72 339 3.0 11.0 0.00 0.00 0.00 64 1016.8
20260509221517 74 196 1.0 7.0 0.00 0.00 0.00 64 1016.8
20260509220016 74 200 1.0 7.0 0.00 0.00 0.00 63 1016.9
20260509214511 73 275 2.0 5.0 0.00 0.00 0.00 64 1017.0
20260509213010 71 135 0.0 4.0 0.00 0.00 0.00 68 1017.2
20260509211505 71 165 1.0 10.0 0.00 0.00 0.00 69 1017.4
20260509210005 71 241 3.0 8.0 0.00 0.00 0.00 69 1017.4
20260509204504 71 179 2.0 7.0 0.00 0.00 0.00 68 1017.3
20260509203004 70 129 0.0 5.0 0.00 0.00 0.00 71 1017.4